When you browse on this site, cookies collect data to enhance your experience and personalize the content and advertising you see.
Visit our Privacy Policy to learn more. By continuing to use the site, you agree to this use of cookies and data.

Hourly Weather Sherpur

Today, 4 August, Tuesday

Time Temperature Precipitation Wind Pressure Humidity
00:00 +25°C° 0 mm 1 mps 606 mmHg 28%
01:00 +25°C° 0 mm 1 mps 606 mmHg 28%
02:00 +24°C° 0 mm 1 mps 606 mmHg 29%
03:00 +23°C° 0 mm 1 mps 606 mmHg 29%
04:00 +23°C° 0 mm 1 mps 605 mmHg 30%
05:00 +22°C° 0 mm 1 mps 605 mmHg 32%
06:00 +23°C° 0 mm 1 mps 606 mmHg 29%
07:00 +24°C° 0 mm 1 mps 606 mmHg 26%
08:00 +25°C° 0 mm 1 mps 607 mmHg 23%
09:00 +27°C° 0 mm 1 mps 607 mmHg 21%
10:00 +28°C° 0 mm 2 mps 607 mmHg 20%
11:00 +30°C° 0 mm 2 mps 608 mmHg 18%
12:00 +30°C° 0 mm 2 mps 608 mmHg 17%
13:00 +31°C° 0 mm 3 mps 608 mmHg 16%
14:00 +33°C° 0 mm 3 mps 608 mmHg 15%
15:00 +33°C° 0 mm 3 mps 607 mmHg 16%
16:00 +33°C° 0 mm 4 mps 607 mmHg 16%
17:00 +33°C° 0 mm 5 mps 607 mmHg 17%
18:00 +32°C° 0 mm 4 mps 607 mmHg 17%
19:00 +29°C° 0 mm 4 mps 607 mmHg 18%
20:00 +28°C° 0 mm 4 mps 607 mmHg 19%
21:00 +27°C° 0 mm 4 mps 607 mmHg 21%
22:00 +26°C° 0 mm 3 mps 607 mmHg 22%
23:00 +25°C° 0 mm 2 mps 607 mmHg 24%

Tomorrow, 5 August, Wednesday

Time Temperature Precipitation Wind Pressure Humidity
00:00 +24°C° 0 mm 2 mps 607 mmHg 25%
01:00 +23°C° 0 mm 2 mps 607 mmHg 26%
02:00 +23°C° 0 mm 1 mps 606 mmHg 28%
03:00 +22°C° 0 mm 1 mps 606 mmHg 29%
04:00 +21°C° 0 mm 1 mps 606 mmHg 31%
05:00 +21°C° 0 mm 1 mps 606 mmHg 32%
06:00 +22°C° 0 mm 1 mps 607 mmHg 29%
07:00 +23°C° 0 mm 1 mps 607 mmHg 26%
08:00 +25°C° 0 mm 1 mps 608 mmHg 23%
09:00 +26°C° 0 mm 2 mps 609 mmHg 21%
10:00 +28°C° 0 mm 2 mps 609 mmHg 20%
11:00 +29°C° 0 mm 2 mps 609 mmHg 18%
12:00 +30°C° 0 mm 2 mps 609 mmHg 16%
13:00 +31°C° 0 mm 2 mps 609 mmHg 15%
14:00 +34°C° 0 mm 3 mps 610 mmHg 14%
15:00 +34°C° 0 mm 3 mps 609 mmHg 13%
16:00 +34°C° 0 mm 4 mps 609 mmHg 13%
17:00 +34°C° 0 mm 5 mps 609 mmHg 13%
18:00 +32°C° 0 mm 4 mps 609 mmHg 15%
19:00 +30°C° 0 mm 4 mps 609 mmHg 16%
20:00 +28°C° 0 mm 3 mps 609 mmHg 18%
21:00 +27°C° 0 mm 2 mps 609 mmHg 20%
22:00 +26°C° 0 mm 2 mps 609 mmHg 21%
23:00 +25°C° 0 mm 1 mps 609 mmHg 23%

Day after tomorrow, 6 August, Thursday

Time Temperature Precipitation Wind Pressure Humidity
00:00 +25°C° 0 mm 1 mps 609 mmHg 24%
01:00 +24°C° 0 mm 1 mps 608 mmHg 26%
02:00 +23°C° 0 mm 1 mps 608 mmHg 27%
03:00 +23°C° 0 mm 1 mps 608 mmHg 28%
04:00 +20°C° 0 mm 0 mps 608 mmHg 29%
05:00 +20°C° 0 mm 0 mps 608 mmHg 30%
06:00 +21°C° 0 mm 0 mps 608 mmHg 26%
07:00 +23°C° 0 mm 0 mps 609 mmHg 23%
08:00 +25°C° 0 mm 0 mps 610 mmHg 20%
09:00 +28°C° 0 mm 1 mps 611 mmHg 18%
10:00 +30°C° 0 mm 1 mps 611 mmHg 17%
11:00 +31°C° 0 mm 1 mps 611 mmHg 16%
12:00 +32°C° 0 mm 1 mps 611 mmHg 15%
13:00 +34°C° 0 mm 2 mps 611 mmHg 15%
14:00 +36°C° 0 mm 2 mps 611 mmHg 14%
15:00 +36°C° 0 mm 2 mps 611 mmHg 13%
16:00 +36°C° 0 mm 2 mps 611 mmHg 13%
17:00 +36°C° 0 mm 2 mps 611 mmHg 13%
18:00 +35°C° 0 mm 2 mps 610 mmHg 14%
19:00 +32°C° 0 mm 2 mps 610 mmHg 16%
20:00 +31°C° 0 mm 2 mps 610 mmHg 18%
21:00 +30°C° 0 mm 2 mps 610 mmHg 19%
22:00 +29°C° 0 mm 2 mps 610 mmHg 21%
23:00 +28°C° 0 mm 1 mps 610 mmHg 23%

7 August, Friday

Time Temperature Precipitation Wind Pressure Humidity
00:00 +27°C° 0 mm 1 mps 610 mmHg 24%
01:00 +26°C° 0 mm 1 mps 609 mmHg 25%
02:00 +23°C° 0 mm 0 mps 609 mmHg 26%
03:00 +23°C° 0 mm 0 mps 609 mmHg 27%
04:00 +24°C° 0 mm 1 mps 608 mmHg 27%
05:00 +24°C° 0 mm 1 mps 608 mmHg 27%
06:00 +25°C° 0 mm 1 mps 609 mmHg 25%
07:00 +27°C° 0 mm 1 mps 610 mmHg 22%
08:00 +28°C° 0 mm 1 mps 611 mmHg 19%
09:00 +30°C° 0 mm 2 mps 611 mmHg 18%
10:00 +31°C° 0 mm 2 mps 612 mmHg 18%
11:00 +32°C° 0 mm 2 mps 612 mmHg 17%
12:00 +34°C° 0 mm 3 mps 612 mmHg 17%
13:00 +35°C° 0 mm 3 mps 612 mmHg 17%
14:00 +36°C° 0 mm 4 mps 612 mmHg 17%
15:00 +36°C° 0 mm 4 mps 612 mmHg 17%
16:00 +36°C° 0 mm 4 mps 611 mmHg 17%
17:00 +36°C° 0 mm 4 mps 611 mmHg 17%
18:00 +35°C° 0 mm 3 mps 611 mmHg 20%
19:00 +33°C° 0 mm 3 mps 611 mmHg 23%
20:00 +31°C° 0 mm 2 mps 610 mmHg 26%
21:00 +30°C° 0 mm 2 mps 610 mmHg 27%
22:00 +29°C° 0 mm 2 mps 610 mmHg 28%
23:00 +28°C° 0 mm 1 mps 610 mmHg 28%

8 August, Saturday

Time Temperature Precipitation Wind Pressure Humidity
00:00 +27°C° 0 mm 1 mps 610 mmHg 29%
01:00 +26°C° 0 mm 1 mps 609 mmHg 30%
02:00 +25°C° 0 mm 1 mps 609 mmHg 31%
03:00 +23°C° 0 mm 0 mps 608 mmHg 32%
04:00 +22°C° 0 mm 0 mps 608 mmHg 34%
05:00 +21°C° 0 mm 0 mps 607 mmHg 35%
06:00 +23°C° 0 mm 0 mps 608 mmHg 32%
07:00 +24°C° 0 mm 0 mps 609 mmHg 30%
08:00 +28°C° 0 mm 1 mps 609 mmHg 27%
09:00 +29°C° 0 mm 1 mps 610 mmHg 24%
10:00 +30°C° 0 mm 1 mps 610 mmHg 21%
11:00 +32°C° 0 mm 1 mps 610 mmHg 18%
12:00 +34°C° 0 mm 2 mps 610 mmHg 16%
13:00 +35°C° 0 mm 2 mps 610 mmHg 15%
14:00 +36°C° 0 mm 2 mps 610 mmHg 13%
15:00 +37°C° 0 mm 3 mps 610 mmHg 13%
16:00 +37°C° 0 mm 3 mps 609 mmHg 12%
17:00 +37°C° 0 mm 4 mps 609 mmHg 12%
18:00 +35°C° 0 mm 3 mps 609 mmHg 14%
19:00 +34°C° 0 mm 3 mps 608 mmHg 17%
20:00 +31°C° 0 mm 3 mps 608 mmHg 19%
21:00 +30°C° 0 mm 2 mps 608 mmHg 21%
22:00 +29°C° 0 mm 2 mps 608 mmHg 23%
23:00 +28°C° 0 mm 1 mps 608 mmHg 25%

9 August, Sunday

Time Temperature Precipitation Wind Pressure Humidity
00:00 +27°C° 0 mm 1 mps 607 mmHg 26%
01:00 +26°C° 0 mm 1 mps 607 mmHg 27%
02:00 +25°C° 0 mm 1 mps 606 mmHg 28%
03:00 +25°C° 0 mm 1 mps 606 mmHg 28%
04:00 +22°C° 0 mm 0 mps 606 mmHg 29%
05:00 +22°C° 0 mm 0 mps 606 mmHg 30%
06:00 +25°C° 0 mm 1 mps 607 mmHg 27%
07:00 +26°C° 0 mm 1 mps 607 mmHg 24%
08:00 +28°C° 0 mm 1 mps 608 mmHg 21%
09:00 +29°C° 0 mm 1 mps 608 mmHg 20%
10:00 +31°C° 0 mm 1 mps 608 mmHg 18%
11:00 +32°C° 0 mm 1 mps 608 mmHg 16%
12:00 +34°C° 0 mm 2 mps 609 mmHg 15%
13:00 +36°C° 0 mm 2 mps 609 mmHg 14%
14:00 +37°C° 0 mm 3 mps 609 mmHg 13%
15:00 +37°C° 0 mm 4 mps 608 mmHg 14%
16:00 +37°C° 0 mm 5 mps 608 mmHg 14%
17:00 +37°C° 0 mm 5 mps 608 mmHg 14%
18:00 +35°C° 0 mm 5 mps 608 mmHg 17%
19:00 +33°C° 0 mm 4 mps 607 mmHg 19%
20:00 +30°C° 0 mm 3 mps 607 mmHg 22%
21:00 +29°C° 0 mm 3 mps 607 mmHg 24%
22:00 +28°C° 0 mm 2 mps 607 mmHg 25%
23:00 +27°C° 0 mm 2 mps 607 mmHg 27%
Show more